CW8504 Weather Reports


time (UTC)temp
F
wind
direction
speed
knots
gust
knots
rain 1hr
in
rain 24hr
in
rain mn
in
humidity
%
barometer
mb
20260508065404 45 242 0.0 0.0 0.00 0.00 0.00 57 1016.3
20260508064903 45 242 0.0 0.0 0.00 0.00 0.00 56 1016.3
20260508064404 45 242 0.0 0.0 0.00 0.00 0.00 56 1016.2
20260508063904 45 242 0.0 0.0 0.00 0.00 0.00 54 1016.2
20260508063404 46 242 0.0 0.0 0.00 0.00 0.00 53 1016.2
20260508062903 46 242 0.0 0.0 0.00 0.00 0.00 53 1016.2
20260508062404 46 242 0.0 0.0 0.00 0.00 0.00 53 1016.2
20260508061404 47 242 0.0 0.0 0.00 0.00 0.00 53 1016.1
20260508060904 47 242 0.0 0.0 0.00 0.00 0.00 52 1016.1
20260508060404 47 242 0.0 0.0 0.00 0.00 0.00 52 1016.0
20260508055905 47 242 0.0 0.0 0.00 0.00 0.00 52 1016.0
20260508055404 47 243 0.0 0.0 0.00 0.00 0.00 52 1016.1
20260508054904 48 243 0.0 0.0 0.00 0.00 0.00 52 1016.1
20260508053404 48 243 0.0 0.0 0.00 0.00 0.00 51 1016.0
20260508052904 48 244 0.0 0.0 0.00 0.00 0.00 51 1015.9
20260508052404 49 243 0.0 0.0 0.00 0.00 0.00 51 1016.0
20260508051405 49 278 0.0 0.0 0.00 0.00 0.00 50 1016.0
20260508050904 49 278 0.0 0.0 0.00 0.00 0.00 50 1016.0
20260508045904 50 278 0.0 0.0 0.00 0.00 0.00 49 1015.9
20260508045404 50 278 0.0 0.0 0.00 0.00 0.00 49 1016.0
20260508044904 50 278 0.0 0.0 0.00 0.00 0.00 49 1016.0
20260508044404 50 278 0.0 0.0 0.00 0.00 0.00 48 1016.0
20260508043903 50 278 0.0 0.0 0.00 0.00 0.00 48 1016.0
20260508043405 51 278 0.0 0.0 0.00 0.00 0.00 48 1016.1
20260508042904 51 278 0.0 0.0 0.00 0.00 0.00 48 1016.0
20260508042404 51 278 0.0 0.0 0.00 0.00 0.00 48 1016.0
20260508041904 51 278 0.0 0.0 0.00 0.00 0.00 47 1016.0
20260508041403 51 278 0.0 0.0 0.00 0.00 0.00 46 1015.9
20260508040404 51 278 0.0 0.0 0.00 0.00 0.00 46 1015.9
20260508035404 52 279 0.0 0.0 0.00 0.00 0.00 47 1015.9
20260508034905 52 279 0.0 0.0 0.00 0.00 0.00 47 1015.8
20260508034404 52 279 0.0 0.0 0.00 0.00 0.00 45 1015.8
20260508033404 53 279 0.0 0.0 0.00 0.00 0.00 43 1015.6
20260508032904 54 279 0.0 0.0 0.00 0.00 0.00 43 1015.6
20260508032404 54 279 0.0 0.0 0.00 0.00 0.00 43 1015.6
20260508031404 55 279 0.0 0.0 0.00 0.00 0.00 41 1015.4
20260508030904 55 279 0.0 0.0 0.00 0.00 0.00 40 1015.4
20260508030404 55 279 0.0 0.0 0.00 0.00 0.00 39 1015.4
20260508025904 55 279 0.0 0.0 0.00 0.00 0.00 39 1015.3
20260508025403 56 279 0.0 0.0 0.00 0.00 0.00 38 1015.2
20260508024904 56 279 0.0 0.0 0.00 0.00 0.00 39 1015.2
20260508024404 56 279 0.0 0.0 0.00 0.00 0.00 38 1015.2
20260508023404 56 279 0.0 0.0 0.00 0.00 0.00 37 1015.1
20260508022904 57 279 0.0 0.0 0.00 0.00 0.00 35 1015.0
20260508022404 57 262 0.0 0.0 0.00 0.00 0.00 40 1014.9
20260508021904 57 262 0.0 0.0 0.00 0.00 0.00 36 1014.8
20260508021404 58 262 0.0 0.0 0.00 0.00 0.00 34 1014.7
20260508020404 58 262 0.0 0.0 0.00 0.00 0.00 32 1014.7
20260508015904 59 262 0.0 0.0 0.00 0.00 0.00 34 1014.6
20260508015403 59 262 0.0 0.0 0.00 0.00 0.00 29 1014.7
20260508014904 59 262 0.0 0.0 0.00 0.00 0.00 29 1014.7
20260508014404 60 262 0.0 0.0 0.00 0.00 0.00 30 1014.5
20260508013903 60 262 0.0 0.0 0.00 0.00 0.00 29 1014.6
20260508013403 60 262 0.0 0.0 0.00 0.00 0.00 27 1014.6
20260508012903 60 261 0.0 0.0 0.00 0.00 0.00 27 1014.5
20260508010904 62 255 0.0 0.0 0.00 0.00 0.00 25 1014.5
20260508010403 62 281 0.0 0.0 0.00 0.00 0.00 24 1014.5
20260508005404 63 274 0.0 0.0 0.00 0.00 0.00 22 1014.5
20260508004404 64 254 0.9 6.1 0.00 0.00 0.00 21 1014.4
20260508003904 64 309 0.0 8.7 0.00 0.00 0.00 19 1014.4
20260508003404 65 267 0.9 10.4 0.00 0.00 0.00 22 1014.5
20260508002904 65 322 1.7 7.8 0.00 0.00 0.00 20 1014.6
20260508002404 66 283 0.9 7.0 0.00 0.00 0.00 20 1014.5
20260508001904 67 343 2.6 10.4 0.00 0.00 0.00 20 1014.3
20260508001404 67 234 2.6 13.0 0.00 0.00 0.00 15 1014.3
20260508000904 67 234 3.5 10.4 0.00 0.00 0.00 15 1014.2
20260507235904 67 222 4.3 11.3 0.00 0.00 0.00 17 1014.0
20260507235404 67 205 6.1 13.9 0.00 0.00 0.00 15 1013.9
20260507234905 67 233 5.2 13.0 0.00 0.00 0.00 15 1014.0
20260507234404 67 209 2.6 7.8 0.00 0.00 0.00 15 1014.0
20260507233404 67 206 7.0 14.8 0.00 0.00 0.00 16 1013.9
20260507232904 67 214 5.2 12.2 0.00 0.00 0.00 15 1013.9
20260507232404 67 203 0.9 10.4 0.00 0.00 0.00 16 1013.9
20260507231904 67 208 5.2 17.4 0.00 0.00 0.00 15 1013.9
20260507231404 67 208 5.2 17.4 0.00 0.00 0.00 15 1014.0
20260507230904 67 211 6.1 12.2 0.00 0.00 0.00 15 1013.8
20260507230404 67 199 2.6 11.3 0.00 0.00 0.00 15 1013.8
20260507225904 67 188 6.1 15.6 0.00 0.00 0.00 16 1013.9
20260507224903 67 216 6.1 13.0 0.00 0.00 0.00 17 1014.0
20260507224404 67 202 7.0 13.9 0.00 0.00 0.00 17 1013.9
20260507223904 66 204 5.2 13.0 0.00 0.00 0.00 17 1014.0
20260507223404 66 204 6.1 14.8 0.00 0.00 0.00 19 1014.1
20260507222904 66 208 8.7 14.8 0.00 0.00 0.00 18 1014.2
20260507222404 67 207 6.1 13.0 0.00 0.00 0.00 20 1014.2
20260507221904 66 201 3.5 10.4 0.00 0.00 0.00 21 1014.3
20260507221404 66 225 4.3 10.4 0.00 0.00 0.00 23 1014.4
20260507220904 65 209 1.7 2.6 0.00 0.00 0.00 24 1014.4
20260507220404 64 186 0.9 2.6 0.00 0.00 0.00 25 1014.5
20260507215904 64 206 0.0 7.0 0.00 0.00 0.00 25 1014.6
20260507215404 64 201 1.7 5.2 0.00 0.00 0.00 27 1014.6
20260507214404 64 233 0.0 6.1 0.00 0.00 0.00 25 1014.8
20260507213904 64 219 0.0 7.0 0.00 0.00 0.00 29 1014.8
20260507213404 63 210 0.0 2.6 0.00 0.00 0.00 27 1014.9
20260507212905 62 192 0.0 0.0 0.00 0.00 0.00 27 1014.8
20260507212404 61 201 0.0 2.6 0.00 0.00 0.00 31 1014.9
20260507211905 61 157 0.0 0.0 0.00 0.00 0.00 32 1015.0
20260507211404 61 157 0.0 0.0 0.00 0.00 0.00 28 1015.2
20260507210405 61 211 2.6 6.1 0.00 0.00 0.00 29 1015.4
20260507205904 61 240 0.9 2.6 0.00 0.00 0.00 28 1015.4
20260507204404 62 206 1.7 11.3 0.00 0.00 0.00 27 1015.4
20260507203904 62 182 2.6 14.8 0.00 0.00 0.00 28 1015.4
20260507203404 62 208 8.7 20.0 0.00 0.00 0.00 28 1015.5
20260507202403 62 216 5.2 17.4 0.00 0.00 0.00 26 1015.4
20260507201904 63 213 8.7 13.9 0.00 0.00 0.00 24 1015.2
20260507200904 64 207 1.7 5.2 0.00 0.00 0.00 21 1015.1
20260507200404 64 189 1.7 4.3 0.00 0.00 0.00 23 1015.1
20260507195904 64 229 0.0 4.3 0.00 0.00 0.00 23 1015.2
20260507194904 64 203 0.9 4.3 0.00 0.00 0.00 23 1015.3
20260507193904 64 235 2.6 11.3 0.00 0.00 0.00 24 1015.3
20260507192919 63 234 0.9 10.4 0.00 0.00 0.00 27 1015.4
20260507192404 63 220 3.5 11.3 0.00 0.00 0.00 25 1015.5
20260507191904 63 217 1.7 7.0 0.00 0.00 0.00 25 1015.6
20260507191403 63 216 6.1 10.4 0.00 0.00 0.00 25 1015.6
20260507190404 62 215 2.6 11.3 0.00 0.00 0.00 29 1015.6
20260507185904 61 229 6.1 17.4 0.00 0.00 0.00 27 1015.7
20260507184904 62 225 2.6 7.8 0.00 0.00 0.00 27 1015.8
20260507184404 62 215 0.9 5.2 0.00 0.00 0.00 26 1015.9
20260507183904 62 223 2.6 10.4 0.00 0.00 0.00 26 1015.9
20260507183404 62 247 1.7 10.4 0.00 0.00 0.00 27 1015.8
20260507182903 62 233 0.0 2.6 0.00 0.00 0.00 26 1016.0
20260507182404 62 219 0.9 11.3 0.00 0.00 0.00 27 1016.0
20260507181905 62 225 2.6 10.4 0.00 0.00 0.00 26 1016.1
20260507181404 61 236 2.6 8.7 0.00 0.00 0.00 28 1016.1
20260507180904 61 235 2.6 10.4 0.00 0.00 0.00 28 1016.1
20260507180404 61 227 1.7 6.1 0.00 0.00 0.00 28 1016.2
20260507174403 60 209 2.6 8.7 0.00 0.00 0.00 28 1016.4
20260507173904 60 222 0.9 7.0 0.00 0.00 0.00 29 1016.4
20260507173404 59 205 2.6 7.0 0.00 0.00 0.00 30 1016.5
20260507172904 59 231 0.9 7.8 0.00 0.00 0.00 30 1016.5
20260507172404 59 215 1.7 7.8 0.00 0.00 0.00 29 1016.5
20260507171904 58 225 1.7 7.0 0.00 0.00 0.00 29 1016.5
20260507171407 59 223 0.9 4.3 0.00 0.00 0.00 29 1016.6
20260507170404 58 215 3.5 11.3 0.00 0.00 0.00 30 1016.6
20260507165904 58 204 4.3 12.2 0.00 0.00 0.00 29 1016.6
20260507165404 58 201 1.7 10.4 0.00 0.00 0.00 31 1016.6
20260507163904 58 207 1.7 10.4 0.00 0.00 0.00 29 1016.8
20260507163404 58 214 1.7 8.7 0.00 0.00 0.00 28 1016.8
20260507162904 58 222 1.7 6.1 0.00 0.00 0.00 31 1016.8
20260507162404 58 218 0.9 10.4 0.00 0.00 0.00 30 1016.8
20260507161903 58 222 2.6 10.4 0.00 0.00 0.00 30 1016.7
20260507161404 58 222 0.9 7.8 0.00 0.00 0.00 29 1016.8
20260507160904 58 210 4.3 8.7 0.00 0.00 0.00 28 1016.8
20260507160403 58 211 2.6 7.8 0.00 0.00 0.00 29 1016.9
20260507155404 58 207 1.7 6.1 0.00 0.00 0.00 28 1016.9
20260507154404 58 210 2.6 7.0 0.00 0.00 0.00 27 1016.9
20260507153904 58 216 4.3 8.7 0.00 0.00 0.00 29 1016.9
20260507153404 58 221 2.6 7.0 0.00 0.00 0.00 29 1017.0
20260507152904 58 221 2.6 6.1 0.00 0.00 0.00 29 1017.0
20260507152404 58 230 3.5 7.8 0.00 0.00 0.00 30 1017.0
20260507151904 57 212 3.5 7.0 0.00 0.00 0.00 29 1017.1
20260507151404 57 186 0.9 7.8 0.00 0.00 0.00 31 1017.0
20260507150904 56 223 4.3 10.4 0.00 0.00 0.00 31 1017.0
20260507150405 56 219 5.2 8.7 0.00 0.00 0.00 32 1017.0
20260507145904 55 217 3.5 6.1 0.00 0.00 0.00 34 1017.0
20260507144904 53 238 0.0 0.0 0.00 0.00 0.00 38 1017.0
20260507144404 52 27 0.0 0.0 0.00 0.00 0.00 38 1017.1
20260507143904 52 15 0.0 0.0 0.00 0.00 0.00 37 1017.1
20260507143404 51 9 0.0 0.0 0.00 0.00 0.00 39 1017.0
20260507142904 50 9 0.0 0.0 0.00 0.00 0.00 40 1017.1
20260507142404 50 9 0.0 0.0 0.00 0.00 0.00 41 1017.1
20260507141904 49 9 0.0 0.0 0.00 0.00 0.00 44 1017.1
20260507141404 49 9 0.0 0.0 0.00 0.00 0.00 45 1017.1
20260507140404 48 9 0.0 0.0 0.00 0.00 0.00 48 1017.1
20260507135904 47 9 0.0 0.0 0.00 0.00 0.00 49 1017.1
20260507135404 46 9 0.0 0.0 0.00 0.00 0.00 51 1017.3
20260507134903 46 9 0.0 0.0 0.00 0.00 0.00 53 1017.3
20260507134404 45 9 0.0 0.0 0.00 0.00 0.00 55 1017.2
20260507133904 44 2 0.0 0.0 0.00 0.00 0.00 56 1017.1
20260507133404 44 355 0.0 0.0 0.00 0.00 0.00 59 1017.1
20260507132904 43 355 0.0 0.0 0.00 0.00 0.00 61 1017.2
20260507132404 42 355 0.0 0.0 0.00 0.00 0.00 63 1017.1
20260507131905 41 355 0.0 0.0 0.00 0.00 0.00 65 1017.1
20260507130904 40 355 0.0 0.0 0.00 0.00 0.00 65 1017.2
20260507130404 39 355 0.0 0.0 0.00 0.00 0.00 65 1017.2
20260507125904 39 355 0.0 0.0 0.00 0.00 0.00 64 1017.1
20260507124904 39 355 0.0 0.0 0.00 0.00 0.00 64 1017.2
20260507124405 39 355 0.0 0.0 0.00 0.00 0.00 63 1017.2
20260507123903 39 355 0.0 0.0 0.00 0.00 0.00 62 1017.3
20260507123404 40 355 0.0 0.0 0.00 0.00 0.00 63 1017.3
20260507122904 40 355 0.0 0.0 0.00 0.00 0.00 63 1017.2
20260507122404 40 355 0.0 0.0 0.00 0.00 0.00 63 1017.1
20260507121904 40 355 0.0 0.0 0.00 0.00 0.00 62 1017.1
20260507120404 41 355 0.0 0.0 0.00 0.00 0.00 63 1017.2
20260507115904 41 355 0.0 0.0 0.00 0.00 0.00 63 1017.4
20260507115404 41 355 0.0 0.0 0.00 0.00 0.00 64 1017.6
20260507114404 41 355 0.0 0.0 0.00 0.00 0.00 65 1017.4
20260507113903 41 355 0.0 0.0 0.00 0.00 0.00 65 1017.3
20260507113404 41 355 0.0 0.0 0.00 0.00 0.00 66 1017.3
20260507112905 41 355 0.0 0.0 0.00 0.00 0.00 65 1017.4
20260507112404 41 355 0.0 0.0 0.00 0.00 0.00 65 1017.6
20260507111904 41 355 0.0 0.0 0.00 0.00 0.00 65 1017.6
20260507111404 41 355 0.0 0.0 0.00 0.00 0.00 65 1017.3
20260507110904 41 355 0.0 0.0 0.00 0.00 0.00 64 1017.1
20260507110404 41 355 0.0 0.0 0.00 0.00 0.00 64 1017.2
20260507105904 41 355 0.0 0.0 0.00 0.00 0.00 64 1017.2
20260507104904 41 355 0.0 0.0 0.00 0.00 0.00 64 1017.4
20260507103904 41 355 0.0 0.0 0.00 0.00 0.00 64 1017.3
20260507103404 41 355 0.0 0.0 0.00 0.00 0.00 64 1017.2
20260507102904 41 355 0.0 0.0 0.00 0.00 0.00 64 1017.3
20260507101904 41 355 0.0 0.0 0.00 0.00 0.00 62 1017.2
20260507101404 41 355 0.0 0.0 0.00 0.00 0.00 62 1017.1
20260507100904 41 355 0.0 0.0 0.00 0.00 0.00 62 1017.1
20260507095905 41 355 0.0 0.0 0.00 0.00 0.00 61 1017.1
20260507095404 41 355 0.0 0.0 0.00 0.00 0.00 60 1017.0
20260507094904 41 355 0.0 0.0 0.00 0.00 0.00 60 1017.0
20260507094404 42 355 0.0 0.0 0.00 0.00 0.00 60 1017.0
20260507093904 42 355 0.0 0.0 0.00 0.00 0.00 60 1017.1
20260507093404 42 355 0.0 0.0 0.00 0.00 0.00 61 1017.0
20260507092904 42 355 0.0 0.0 0.00 0.00 0.00 62 1017.0
20260507092404 42 355 0.0 0.0 0.00 0.00 0.00 60 1017.0
20260507091904 42 355 0.0 0.0 0.00 0.00 0.00 61 1017.0
20260507091404 42 355 0.0 0.0 0.00 0.00 0.00 61 1017.0
20260507090905 42 355 0.0 0.0 0.00 0.00 0.00 61 1017.0
20260507090404 42 355 0.0 0.0 0.00 0.00 0.00 61 1016.9
20260507085904 42 355 0.0 0.0 0.00 0.00 0.00 60 1016.9
20260507085404 42 355 0.0 0.0 0.00 0.00 0.00 60 1016.8
20260507084404 42 355 0.0 0.0 0.00 0.00 0.00 61 1016.6
20260507083404 42 355 0.0 0.0 0.00 0.00 0.00 60 1016.6
20260507082404 42 355 0.0 0.0 0.00 0.00 0.00 60 1016.7
20260507081904 41 355 0.0 0.0 0.00 0.00 0.00 60 1016.6
20260507081403 41 355 0.0 0.0 0.00 0.00 0.00 59 1016.6
20260507080904 41 355 0.0 0.0 0.00 0.00 0.00 59 1016.8
20260507080404 41 355 0.0 0.0 0.00 0.00 0.00 58 1016.9
20260507075903 41 355 0.0 0.0 0.00 0.00 0.00 58 1016.7
20260507075405 42 355 0.0 0.0 0.00 0.00 0.00 57 1016.6
20260507074404 42 355 0.0 0.0 0.00 0.00 0.00 57 1016.6
20260507073904 42 355 0.0 0.0 0.00 0.00 0.00 57 1016.4
20260507073404 42 355 0.0 0.0 0.00 0.00 0.00 57 1016.8
20260507072904 42 355 0.0 0.0 0.00 0.00 0.00 57 1016.8
20260507072404 42 355 0.0 0.0 0.00 0.00 0.00 57 1016.8
20260507071904 42 355 0.0 0.0 0.00 0.00 0.00 57 1016.8
20260507071404 42 355 0.0 0.0 0.00 0.00 0.00 58 1016.8
20260507070404 42 355 0.0 0.0 0.00 0.00 0.00 57 1017.1
20260507065904 42 355 0.0 0.0 0.00 0.00 0.00 57 1017.0